Time,TemperatureF,DewpointF,PressureIn,WindDirection,WindDirectionDegrees,WindSpeedMPH,WindSpeedGustMPH,Humidity,HourlyPrecipIn,Conditions,Clouds,dailyrainin,SoftwareType,DateUTC
2013-02-14 17:30:00,38.0,30.0,-100.00,SW,220,7.0,7.0,72,-99.99,,,-99.99,,2013-02-14 22:30:00,
2013-02-14 17:31:00,39.0,28.0,-100.00,WSW,240,7.0,9.0,64,-99.99,,,-99.99,,2013-02-14 22:31:00,
2013-02-14 17:41:00,39.0,28.0,-100.00,WSW,240,7.0,9.0,64,-99.99,,,-99.99,,2013-02-14 22:41:00,
2013-02-14 17:51:00,39.0,28.0,-100.00,WSW,240,7.0,9.0,64,-99.99,,,-99.99,,2013-02-14 22:51:00,
2013-02-14 18:01:00,38.0,30.0,-100.00,SW,220,7.0,7.0,72,-99.99,,,-99.99,,2013-02-14 23:01:00,
2013-02-14 18:11:00,38.0,30.0,-100.00,SW,220,7.0,7.0,72,-99.99,,,-99.99,,2013-02-14 23:11:00,
2013-02-14 18:21:00,38.0,30.0,-100.00,SW,220,7.0,7.0,72,-99.99,,,-99.99,,2013-02-14 23:21:00,
2013-02-14 19:00:00,37.0,31.0,-100.00,SSW,200,11.0,11.0,76,-99.99,,,-99.99,,2013-02-15 00:00:00,
2013-02-14 19:41:00,37.0,31.0,-100.00,SSW,200,11.0,11.0,76,-99.99,,,-99.99,,2013-02-15 00:41:00,
2013-02-14 19:51:00,37.0,31.0,-100.00,SSW,200,11.0,11.0,76,-99.99,,,-99.99,,2013-02-15 00:51:00,
2013-02-14 21:30:00,37.0,32.0,-100.00,SSW,210,9.0,9.0,84,-99.99,,,-99.99,,2013-02-15 02:30:00,
2013-02-14 21:51:00,37.0,32.0,-100.00,SSW,210,9.0,9.0,82,-99.99,,,-99.99,,2013-02-15 02:51:00,
2013-02-14 22:01:00,37.0,32.0,-100.00,SSW,210,9.0,9.0,84,-99.99,,,-99.99,,2013-02-15 03:01:00,
2013-02-14 22:11:00,37.0,32.0,-100.00,SSW,210,9.0,9.0,84,-99.99,,,-99.99,,2013-02-15 03:11:00,
2013-02-14 22:21:00,37.0,32.0,-100.00,SSW,210,9.0,9.0,84,-99.99,,,-99.99,,2013-02-15 03:21:00,
2013-02-14 22:41:00,37.0,33.0,-100.00,SSW,200,9.0,11.0,86,-99.99,,,-99.99,,2013-02-15 03:41:00,
2013-02-14 22:51:00,37.0,33.0,-100.00,SSW,200,9.0,11.0,86,-99.99,,,-99.99,,2013-02-15 03:51:00,
2013-02-14 23:01:00,37.0,33.0,-100.00,SSW,210,9.0,11.0,86,-99.99,,,-99.99,,2013-02-15 04:01:00,
2013-02-14 23:11:00,37.0,33.0,-100.00,SSW,210,9.0,11.0,86,-99.99,,,-99.99,,2013-02-15 04:11:00,
2013-02-14 23:21:00,37.0,34.0,-100.00,SSW,210,11.0,16.0,86,-99.99,,,-99.99,,2013-02-15 04:21:00,
2013-02-14 23:30:00,37.0,34.0,-100.00,SSW,210,9.0,11.0,89,-99.99,,,-99.99,,2013-02-15 04:30:00,
2013-02-14 23:31:00,37.0,34.0,-100.00,SSW,210,11.0,16.0,86,-99.99,,,-99.99,,2013-02-15 04:31:00,
2013-02-14 23:41:00,37.0,34.0,-100.00,SW,220,9.0,11.0,88,-99.99,,,-99.99,,2013-02-15 04:41:00,
2013-02-14 23:51:00,37.0,34.0,-100.00,SW,220,9.0,11.0,88,-99.99,,,-99.99,,2013-02-15 04:51:00,